855  
ASUS41 KALY 072010  
RWRALY  
 
NEW YORK STATE HOURLY WEATHER ROUNDUP  
NATIONAL WEATHER SERVICE ALBANY NY  
400 PM EDT TUE JUL 07 2020  
 
NOTE: "FAIR" INDICATES FEW OR NO CLOUDS BELOW 12,000 FEET WITH NO  
SIGNIFICANT WEATHER AND/OR NO S TO VISIBILITY
.  
 
NYZ032-033-038>043-046>054-057>066-NYZ062>081-082-084-072100-  
EAST  
 
 
CITY SKY/WX TMP DP RH WIND PRES REMARKS
 
ALBANY PTSUNNY 85 65 51 SE14G25 30.04F  
GLENS FALLS MOSUNNY 82 64 54 S13 30.03F  
POUGHKEEPSIE PTSUNNY 81 67 62 SE12 30.06F  
NEWBURGH PTSUNNY 81 68 65 SE10G16 30.08F  
MONTGOMERY CLOUDY 79 69 71 SE9 30.06F  
WHITE PLAINS PTSUNNY 75 67 76 SE14 30.10F  
ISLIP CLOUDY 74 70 87 SE13 30.11F  
NEW YORK CITY PTSUNNY 76 67 73 NE12 30.07F  
CENTRAL PARK CLOUDY 79 69 71 VRB7 30.11F  

 
 
NYZ005>009-017-018-044>046-055-056-072100-  
CENTRAL  
 
 
CITY SKY/WX TMP DP RH WIND PRES REMARKS
 
FULTON MOSUNNY 93 67 42 S8 29.96F HX 96  
SYRACUSE PTSUNNY 89 67 47 S13G18 29.97F HX 92  
ROME MOSUNNY 88 67 49 S14 30.00F HX 91  
ELMIRA PTSUNNY 85 68 56 SE12 29.98F  
BINGHAMTON MOSUNNY 79 65 62 S9 30.07F  
MONTICELLO CLOUDY 78 68 71 S8 30.11F  

 
 
NYZ026>034-041>043-087-072100-  
NORTH  
 
 
CITY SKY/WX TMP DP RH WIND PRES REMARKS
 
WATERTOWN MOSUNNY 89 68 49 W14 29.94F HX 93  
FORT DRUM NOT AVBL  
OGDENSBURG FAIR 91 70 49 VRB5 29.90F HX 97  
MASSENA SUNNY 93 63 36 VRB7 29.93F HX 94  
SARANAC LAKE MOSUNNY 84 61 45 SW14 30.01F  
PLATTSBURGH SUNNY 85 68 56 SE16 29.95F  

 
 
NYZ001>004-010>016-019>021-085-072100-  
WEST  
 
 
CITY SKY/WX TMP DP RH WIND PRES REMARKS
 
NIAGARA FALLS SUNNY 92 59 33 SW10 29.93F HX 91  
BUFFALO MOSUNNY 93 56 28 SW10 29.95F HX 91  
DUNKIRK MOSUNNY 91 65 41 VRB7 29.96F HX 93  
JAMESTOWN PTSUNNY 79 67 66 NW6 30.03F  
WELLSVILLE MOSUNNY 84 63 49 N6 30.06F  
ROCHESTER MOSUNNY 91 65 41 NE10 29.95F HX 93  
PENN YAN PTSUNNY 88 67 49 VRB6 29.98F HX 91  

 
 
KEY  
WCI = WIND CHILL INDEX  
VSB = VISIBILITY  
HX = HEAT INDEX  

 
 
 
CLICK HERE TO GO TO PREVIOUS BULLETINS.

The Nexlab NY Page
The Nexlab VT Page
The Nexlab MA Page
The Nexlab CT Page Main Text Page